Showing default

ZHANGHENG 1-02, 64393

Orbit data source: Space-Track

ZHANGHENG 1-02, 64393 is a payload satellite owned by CAS (CN) in SSO that was launched on Sat, 14 Jun 2025 UTC via a CHANG ZHENG 2D launch vehicle from the Jiuquan Satellite Launch Center, China (JSC). Payload-class satellites include a variety of spacecraft equipped with specific instruments for various scientific and technological missions. These include communications satellites like Starlink; space stations such as the ISS; scientific satellites like the Hubble; Earth observation satellites from companies like Planet Labs, Umbra, and HawkEye 360; GPS; miniature CubeSats for education and research; and military/defense satellites.

Loading next visibility...
Identifier
64393, 2025-128A
Orbit
SSO
Country
Flag of CNCN / PRC
Related business
Manufacturer
DFH
Mission
Operational Civil Science
Bus & Motor
CAST-2000, AOCS
Mass
730 kg wet, ~700 kg dry
Launch date (UTC)
2025-06-14 (5 months ago)
Launch vehicle
CHANG ZHENG 2D
Launch site
Jiuquan Satellite Launch Center, China (JSC)
Object type
Payload
Rocket body
Debris
Shape & HBR
Box + 2 Pan, 14.5 m
Radar Cross Section
2.715 m², Large (>1 m²)

Expand to show TLE details & history
Last TLE update: 16 hours ago

TLE from 16 hours ago
0 ZHANGHENG 1-02
1 64393U 25128A   25306.34470804  .00002105  00000-0  98354-4 0  9990
2 64393  97.3340  73.7807 0012756 175.9870 184.1471 15.20820801 21447
Epoch: 2025-11-02T08:16Z
TLE epoch observation values (Epoch: 2025-11-02T08:16:22.774Z)
Latitude
0.00003°
Longitude
-92.17597°
Altitude
515.214 km
Speed
7.601 km/s
True Right ascension
04h 55m 07s
True Declination
0° 00' 00"
Sunlit
Object was in full shadow at epoch
Visualization orbit readout
Latitude
Unknown
Longitude
Unknown
Altitude
Unknown
Speed
Unknown
Apparent Right ascension
Unknown
Apparent Declination
Unknown
Sunlit
N/A
Visualization observer readout
Local Sidereal Time
20:26:37
Azimuth
Unknown
Elevation
Unknown
Doppler factor
Unknown
Orbital elements
Apogee altitude
509.099 km
Perigee altitude
491.551 km
Semi-major axis
6,878.462 km
Eccentricity
0.00128
Inclination
97.334°
RAAN
73.7807°
Arg. of periapsis
175.987°
True anomaly
184.13655°
Mean anomaly
184.1471°
Eccentric anomaly
184.14182°
Mean motion
3.80457 °/min
Orbital period
94.62 mins
BSTAR
0.000098354
Loading maneuver chart data...
Computing Atmospheric mass density...
Loading historical data...
Loading historical data...
Loading historical data...
Loading historical data...
Loading historical data...
Loading historical data...
Loading historical data...
Other satellites on launch #128 in the year 2025 (2025-06-14 UTC)

Documentation

Showing up to 5 results
|